Location: Nitra
(0.0000°N, 18.0833°E)
Time: 04:53:06
(UTC+01:00)

ARIANE 5 R/B - Pass Details

Date: 24 January 2021
Orbit: 274 x 33377 km, 1.2° (Epoch: 04 March)

Event Time Altitude Azimuth Distance (km) Brightness Sun altitude
Rises 18:44:18 0° 271° (W) 7,014 8.9 -10.5°
Reaches altitude 10° 18:51:32 10° 270° (W) 3,615 7.2 -12.2°
Maximum altitude 18:58:05 82° 182° (S) 491 1.5 -13.7°
Enters shadow 18:59:20 26° 96° (E) 781 2.1 -14.0°
